Regional Weather Roundup
Issued by NWS

Home | Current Version | Previous Version | Graphics & Text | Print | Product List | Glossary Off
Versions: 1 2 3 4 5 6 7 8 9 10 11 12 13 14 15 16 17 18 19 20 21 22 23 24 25 26 27 28 29 30 31 32 33 34 35 36 37 38 39 40 41 42 43 44 45 46 47 48 49 50

536
ASUS43 KTOP 260808
RWRKS

WEATHER ROUNDUP FOR KANSAS
NATIONAL WEATHER SERVICE GOODLAND KS
200 AM CST SUN FEB 26 2017

NOTE:  "FAIR" INDICATES FEW OR NO CLOUDS BELOW 12,000 FEET WITH NO
SIGNIFICANT WEATHER AND/OR OBSTRUCTIONS TO VISIBILITY.

KSZ001>006-013>018-027>032-041>047-260900-
NORTHWEST KANSAS

CITY           SKY/WX    TMP DP  RH WIND       PRES   REMARKS
GOODLAND       CLEAR     13   5  70 NW3       29.84S
HAYS           CLOUDY    29  17  61 NE6       29.91S
HILL CITY      CLOUDY    25  15  66 S6        29.88F
RUSSELL        MOCLDY    30  15  53 N3        29.90F
$$

KSZ061>065-074>080-084>089-260900-
SOUTHWEST KANSAS

CITY           SKY/WX    TMP DP  RH WIND       PRES   REMARKS
DODGE CITY     PTCLDY    31  15  52 SE14      29.86F WCI  21
ELKHART          N/A     27   4  37 SE7         N/A
GARDEN CITY    PTCLDY    27  13  55 E5        29.85R
GREAT BEND     CLOUDY    35  24  64 S14       29.90F WCI  26
LIBERAL        CLOUDY    36  19  51 SE6       29.82S
PRATT          CLOUDY    29  15  54 S5        29.92R
$$

KSZ066>073-081>083-090>101-260900-
SOUTHEAST KANSAS

CITY           SKY/WX    TMP DP  RH WIND       PRES   REMARKS
CHANUTE        CLOUDY    33  19  56 SE7       30.03S
COFFEYVILLE    PTCLDY    31  18  58 CALM      30.03F
HUTCHINSON     CLOUDY    34  20  56 S3        29.95S
MEDICINE LODGE   N/A     32  18  56 SE3       29.92R
NEWTON         CLOUDY    34  19  54 S8        29.96F
PARSONS        MOCLDY    36  16  44 SE5       30.04F
WICHITA INTL   CLOUDY    35  19  52 SE9       29.94F
WICHITA JABRA  CLOUDY    35  18  49 S12       29.95F WCI  27
WICHITA MCCONL CLOUDY    35  17  48 SE10      29.94F WCI  27
WINFIELD       CLOUDY    36  20  52 SE8       29.97F
$$

KSZ007>012-019>026-033>040-048>060-102>105-260900-
NORTHEAST KANSAS

CITY           SKY/WX    TMP DP  RH WIND       PRES   REMARKS
CONCORDIA      CLOUDY    36  17  46 SW9       29.94S
EMPORIA        CLOUDY    33  16  49 S15       29.97F WCI  23
LAWRENCE       PTCLDY    34  14  43 S10       29.99F WCI  26
MANHATTAN      CLOUDY    34  19  54 CALM      29.98S
MARYSVILLE     CLEAR     32  19  59 SW8       29.95S
OLATHE IND     CLEAR     30  14  51 S9        30.00S
OLATHE EXE     PTCLDY    31  15  52 S9        30.00R
SALINA         MOCLDY    38  17  42 S15       29.95S WCI  29
TOPEKA BILLARD PTCLDY    35  16  45 S10G18    29.98S WCI  27
TOPEKA FORBES  PTCLDY    32  16  51 S12       29.98S WCI  23
$$




USA.gov is the U.S. government's official web portal to all federal, state and local government web resources and services.